Weather reports worldwide

Advertisment
Riga, Latvia (26422): temperature & dewpoint: 16.01.2020 00:00:00 - 22.01.2020 00:00:00 (EET)Riga, Latvia (26422): wind speed & gusts: 16.01.2020 00:00:00 - 22.01.2020 00:00:00 (EET)Riga, Latvia (26422): wind direction: 16.01.2020 00:00:00 - 22.01.2020 00:00:00 (EET)Riga, Latvia (26422): reduced air pressure: 16.01.2020 00:00:00 - 22.01.2020 00:00:00 (EET)Riga, Latvia (26422): visibility: 16.01.2020 00:00:00 - 22.01.2020 00:00:00 (EET)Riga, Latvia (26422): precipitation: 16.01.2020 00:00:00 - 22.01.2020 00:00:00 (EET)
Date & Time tt [°C] td [°C] ff [km/h] ff [kn] fx [km/h] fx [kn] dd ppp [hPa] vv [km] rr [mm]
22.01.2020 00:00:00 - - - - - - - - - -
21.01.2020 23:00:00 5,2 3,6 11 6 23 12 W 1015,5 20 0,0
21.01.2020 22:00:00 4,9 3,2 11 6 29 16 W 1016,8 - -
21.01.2020 21:00:00 5,3 3,0 14 8 40 21 W 1017,5 - -
21.01.2020 20:00:00 5,9 3,7 18 10 38 21 NW 1018,2 20 0,0
21.01.2020 19:00:00 6,5 3,3 18 10 32 18 W 1018,3 - -
21.01.2020 18:00:00 6,3 4,0 22 12 40 21 W 1018,2 - -
21.01.2020 17:00:00 6,0 4,3 14 8 40 22 NW 1018,2 20 0,2
21.01.2020 16:00:00 6,4 5,7 22 12 50 27 W 1018,0 - -
21.01.2020 15:00:00 6,6 5,9 25 14 50 27 W 1017,6 - -
21.01.2020 14:00:00 6,7 5,6 25 14 47 25 WNW 1017,0 6 0,4
21.01.2020 13:00:00 7,2 5,0 25 14 58 31 W 1017,2 - -
21.01.2020 12:00:00 7,6 4,5 29 16 50 27 W 1017,5 - -
21.01.2020 11:00:00 7,8 4,3 25 14 46 25 W 1017,5 20 0,0
21.01.2020 10:00:00 7,5 4,5 22 12 47 25 W 1017,8 20 -
21.01.2020 09:00:00 7,2 4,8 18 10 40 21 W 1018,4 20 -
21.01.2020 08:00:00 6,9 4,7 22 12 37 20 W 1018,8 20 0,0
21.01.2020 07:00:00 6,5 4,5 18 10 40 21 W 1019,6 20 -
21.01.2020 06:00:00 6,3 4,1 14 8 40 21 W 1021,0 20 -
21.01.2020 05:00:00 6,1 3,5 18 10 40 22 W 1022,0 20 0,0
21.01.2020 04:00:00 5,7 3,0 14 8 36 19 W 1022,6 20 -
21.01.2020 03:00:00 5,7 3,0 14 8 36 19 W 1023,6 20 -
21.01.2020 02:00:00 5,8 2,9 18 10 35 19 W 1024,4 19 0,0
21.01.2020 01:00:00 5,8 2,8 18 10 36 19 W 1025,1 20 -
21.01.2020 00:00:00 5,7 2,7 14 8 36 19 W 1026,2 20 -
20.01.2020 23:00:00 5,5 2,4 14 8 34 18 W 1026,9 20 0,0
20.01.2020 22:00:00 5,4 2,1 18 10 40 21 W 1027,4 20 -
20.01.2020 21:00:00 5,2 1,9 22 12 40 21 W 1028,0 20 -
20.01.2020 20:00:00 5,0 1,2 18 10 36 20 W 1028,7 20 0,0
20.01.2020 19:00:00 4,7 -0,1 18 10 32 18 W 1029,1 20 -
20.01.2020 18:00:00 4,7 -1,5 18 10 32 18 W 1029,6 20 -
20.01.2020 17:00:00 4,7 -1,2 14 8 30 16 WSW 1030,6 20 0,0
20.01.2020 16:00:00 4,8 0,0 14 8 32 18 W 1031,4 20 -
20.01.2020 15:00:00 4,7 0,6 14 8 32 18 W 1031,8 - -
20.01.2020 14:00:00 4,6 1,0 14 8 29 16 WSW 1032,5 20 0,0
20.01.2020 13:00:00 4,3 0,8 14 8 32 18 SW 1032,8 20 -
20.01.2020 12:00:00 3,7 1,1 14 8 29 16 SW 1033,9 20 -
20.01.2020 11:00:00 2,5 0,7 14 8 29 15 WSW 1034,5 20 0,0
20.01.2020 10:00:00 1,5 0,3 11 6 25 14 SW 1034,4 20 -
20.01.2020 09:00:00 0,9 -0,1 11 6 18 10 SW 1034,2 19 -
20.01.2020 08:00:00 0,6 -0,5 11 6 18 10 SW 1034,4 18 0,0
20.01.2020 07:00:00 1,0 -0,2 11 6 18 10 SW 1034,4 20 -
20.01.2020 06:00:00 1,8 0,5 11 6 18 10 SW 1034,4 20 -
20.01.2020 05:00:00 2,1 0,6 7 4 17 9 WSW 1034,6 20 0,0
20.01.2020 04:00:00 2,5 1,0 7 4 18 10 SW 1034,4 20 -
20.01.2020 03:00:00 3,0 1,2 7 4 18 10 SW 1034,3 20 -
20.01.2020 02:00:00 3,1 1,2 7 4 16 9 WSW 1033,9 20 0,0
20.01.2020 01:00:00 3,1 1,3 7 4 18 10 W 1033,9 20 -
20.01.2020 00:00:00 3,0 1,4 11 6 22 12 W 1033,6 20 -
19.01.2020 23:00:00 2,7 1,2 11 6 23 12 WNW 1032,6 20 0,0
19.01.2020 22:00:00 2,9 1,3 11 6 29 16 W 1031,9 20 -
19.01.2020 21:00:00 3,0 1,0 7 4 14 8 W 1031,6 19 -
19.01.2020 20:00:00 3,4 1,0 7 4 15 8 SW 1031,0 19 0,0
19.01.2020 19:00:00 4,4 1,4 11 6 22 12 W 1030,4 20 -
19.01.2020 18:00:00 5,3 1,8 11 6 18 10 W 1029,9 20 -
19.01.2020 17:00:00 5,6 2,4 7 4 18 10 WNW 1028,8 20 0,0
19.01.2020 16:00:00 6,0 2,5 11 6 22 12 W 1027,8 20 -
19.01.2020 15:00:00 5,7 3,0 11 6 25 14 SW 1026,7 20 -
19.01.2020 14:00:00 5,6 2,9 11 6 23 13 WSW 1026,3 17 0,0
19.01.2020 13:00:00 5,5 2,5 11 6 22 12 SW 1025,6 20 -
19.01.2020 12:00:00 5,0 2,5 11 6 22 12 SW 1025,0 20 -
19.01.2020 11:00:00 4,3 1,6 14 8 23 12 SW 1024,6 20 0,0
19.01.2020 10:00:00 3,4 1,4 14 8 29 16 SW 1023,9 19 -
19.01.2020 09:00:00 3,4 1,3 18 10 29 16 SW 1023,0 17 -
19.01.2020 08:00:00 3,3 0,8 18 10 29 15 SSW 1022,3 16 0,0
19.01.2020 07:00:00 3,1 0,7 18 10 36 19 SW 1021,6 17 -
19.01.2020 06:00:00 3,7 0,7 22 12 36 19 SW 1021,0 20 -
19.01.2020 05:00:00 4,3 0,7 14 8 32 17 SSW 1020,7 20 0,0
19.01.2020 04:00:00 4,7 0,5 18 10 36 19 SW 1020,3 20 -
19.01.2020 03:00:00 4,9 0,7 14 8 32 18 SW 1020,3 - -
19.01.2020 02:00:00 5,0 1,1 14 8 29 16 SW 1019,9 20 0,0
19.01.2020 01:00:00 5,3 0,3 14 8 29 16 SW 1019,6 - -
19.01.2020 00:00:00 4,9 0,8 14 8 29 16 SW 1019,6 - -
18.01.2020 23:00:00 4,8 1,0 11 6 27 15 WSW 1019,3 17 0,0
18.01.2020 22:00:00 4,0 2,2 14 8 29 16 SW 1019,0 - -
18.01.2020 21:00:00 4,2 2,1 14 8 29 16 SW 1018,8 - -
18.01.2020 20:00:00 4,1 2,2 14 8 27 15 SSW 1018,4 5 0,0
18.01.2020 19:00:00 3,9 2,1 14 8 32 18 S 1018,3 - -
18.01.2020 18:00:00 3,4 1,6 14 8 32 18 S 1018,2 - -
18.01.2020 17:00:00 3,0 1,3 14 8 32 17 SSW 1017,8 3,3 0,0
18.01.2020 16:00:00 2,9 1,0 18 10 36 19 S 1017,6 - -
18.01.2020 15:00:00 2,6 0,8 18 10 36 19 S 1017,5 - -
18.01.2020 14:00:00 2,5 0,8 18 10 36 19 SSW 1017,6 - 0,0
18.01.2020 13:00:00 2,0 0,7 18 10 36 19 SW 1017,2 3,7 -
18.01.2020 12:00:00 1,7 0,2 18 10 36 19 SW 1017,5 4,5 -
18.01.2020 11:00:00 1,3 0,1 18 10 34 18 SSW 1017,5 4,5 0,0
18.01.2020 10:00:00 1,1 -0,1 18 10 36 19 S 1017,6 5 -
18.01.2020 09:00:00 1,1 -0,5 18 10 36 19 S 1017,2 7 -
18.01.2020 08:00:00 1,0 -0,8 18 10 36 19 SSW 1017,4 7 0,0
18.01.2020 07:00:00 0,8 -1,0 18 10 36 19 S 1017,2 9 -
18.01.2020 06:00:00 0,7 -1,4 22 12 43 23 SW 1018,0 12 -
18.01.2020 05:00:00 0,6 -2,0 22 12 44 24 S 1018,3 17 0,0
18.01.2020 04:00:00 0,7 -2,5 18 10 40 21 S 1018,3 20 -
18.01.2020 03:00:00 0,9 -2,7 18 10 36 19 S 1019,0 20 -
18.01.2020 02:00:00 0,3 -2,1 22 12 31 17 SSE 1019,7 15 0,0
18.01.2020 01:00:00 0,0 -1,7 18 10 32 18 S 1021,1 11 -
18.01.2020 00:00:00 0,7 -1,4 14 8 25 14 S 1022,3 14 -
17.01.2020 23:00:00 1,1 -0,6 11 6 25 13 S 1022,9 12 0,0
17.01.2020 22:00:00 1,9 0,0 14 8 29 16 S 1023,5 16 -
17.01.2020 21:00:00 2,6 0,7 14 8 29 16 S 1024,0 17 -
17.01.2020 20:00:00 3,1 0,9 18 10 27 15 S 1024,5 15 0,0
17.01.2020 19:00:00 3,6 1,5 18 10 29 16 S 1025,0 17 -
17.01.2020 18:00:00 4,1 2,0 18 10 29 16 S 1025,2 17 -
17.01.2020 17:00:00 4,2 1,8 18 10 25 14 S 1025,5 17 0,0
17.01.2020 16:00:00 4,8 2,0 14 8 32 18 S 1026,0 20 -
17.01.2020 15:00:00 5,3 2,0 14 8 32 18 SW 1026,3 20 -
17.01.2020 14:00:00 5,8 1,8 14 8 33 18 SSW 1026,8 20 0,0
17.01.2020 13:00:00 5,5 2,1 14 8 29 16 S 1027,1 20 -
17.01.2020 12:00:00 4,9 1,7 18 10 32 18 SW 1027,6 20 -
17.01.2020 11:00:00 4,6 1,7 18 10 31 17 SW 1028,0 20 0,0
17.01.2020 10:00:00 4,3 1,3 14 8 29 16 SW 1027,8 20 -
17.01.2020 09:00:00 4,6 1,3 11 6 29 16 SW 1027,2 20 -
17.01.2020 08:00:00 5,1 1,3 7 4 21 12 WSW 1027,3 19 0,0
17.01.2020 07:00:00 5,6 1,5 14 8 29 16 W 1026,8 20 -
17.01.2020 06:00:00 5,4 1,5 11 6 29 16 W 1026,7 20 -
17.01.2020 05:00:00 4,7 1,7 7 4 24 13 WSW 1026,5 20 0,0
17.01.2020 04:00:00 4,7 1,9 11 6 25 14 W 1026,4 20 -
17.01.2020 03:00:00 4,3 2,0 11 6 29 16 W 1026,3 19 -
17.01.2020 02:00:00 4,1 2,1 14 8 28 15 WSW 1026,1 17 0,0
17.01.2020 01:00:00 4,4 2,3 11 6 25 14 SW 1025,6 18 -
17.01.2020 00:00:00 5,0 2,2 11 6 36 19 W 1024,8 19 -
16.01.2020 23:00:00 6,1 2,3 11 6 37 20 W 1024,4 19 0,0
16.01.2020 22:00:00 7,0 2,7 14 8 29 16 W 1024,0 20 -
16.01.2020 21:00:00 7,0 2,9 14 8 29 16 W 1023,1 20 -
16.01.2020 20:00:00 6,8 2,8 11 6 28 15 W 1022,4 19 0,0
16.01.2020 19:00:00 6,5 3,1 14 8 36 19 W 1022,0 19 -
16.01.2020 18:00:00 6,9 2,6 14 8 36 19 W 1021,2 20 -
16.01.2020 17:00:00 7,0 2,0 14 8 33 18 WSW 1020,9 19 0,0
16.01.2020 16:00:00 7,0 1,9 14 8 43 23 W 1020,2 20 -
16.01.2020 15:00:00 7,0 1,7 22 12 50 27 W 1019,5 20 -
16.01.2020 14:00:00 7,1 1,7 22 12 49 27 W 1019,2 20 0,0
16.01.2020 13:00:00 7,2 1,9 18 10 43 23 W 1018,7 20 -
16.01.2020 12:00:00 6,6 1,9 18 10 43 23 W 1018,2 20 -
16.01.2020 11:00:00 6,6 2,4 14 8 39 21 W 1017,6 20 0,0
16.01.2020 10:00:00 6,2 2,6 18 10 36 19 W 1017,0 20 -
16.01.2020 09:00:00 6,6 2,7 14 8 36 19 W 1015,6 20 -
16.01.2020 08:00:00 7,9 4,6 18 10 36 19 WNW 1014,2 20 0,0
16.01.2020 07:00:00 8,0 5,5 14 8 43 23 W 1012,7 20 -
16.01.2020 06:00:00 7,8 3,6 22 12 43 23 SW 1011,7 20 -
16.01.2020 05:00:00 7,4 3,0 22 12 37 20 SW 1011,2 20 0,0
16.01.2020 04:00:00 6,9 3,0 22 12 36 19 SW 1011,3 20 -
16.01.2020 03:00:00 6,3 2,9 22 12 36 19 SW 1011,1 20 -
16.01.2020 02:00:00 6,1 2,8 18 10 35 19 SSW 1011,4 19 0,0
16.01.2020 01:00:00 6,5 3,1 18 10 40 21 SW 1011,7 - -
16.01.2020 00:00:00 6,8 3,4 18 10 40 21 SW 1011,8 - -

tt = temperature
td = dewpoint
ff = wind speed
fx = gusts
dd = wind direction
ppp = reduced air pressure
vv = visibility
rr = precipitation

Next stations